HORYU-4

Last updated on Wed Sep 17 2025 00:03:49 GMT+0000 (Coordinated Universal Time)

1 41340U 16012D 25259.19288891 .00033943 00000+0 77869-3 0 9992 2 41340 30.9946 186.7462 0005987 355.4003 4.6588 15.41476440527997
UTC large
Height (km)
Speed (km/s)
/
Latitude / Longitude
Inclination (degrees)
Orbital Period (minutes)
Azimuth
Elevation
Range (km)
Doppler Factor

Next 0 passes for location: London (51.5072 / 0.1276)

Sorry there are no passes over London.